RH
68 68 69 71 71 69 65 62 60 59 59 58 59 63 70 72 73 74 77 85 92 98 99 99 98 95 91 87 83 80 77 76 74 70 66 61 59 59 61 67 74 80 86 90 93 96 98 99 99 99 99 100 100 100 100 100 100 100 99 100 100 100 100 100 100 100 100 100 99 98 96 96 97 98 96 97 97 96 96 98 99 99 98 97 96 97
70 69 70 71 71 70 66 63 59 57 56 56 58 62 67 70 70 71 73 78 86 93 98 99 99 99 98 96 93 90 88 85 82 77 71 66 62 61 63 69 75 82 88 92 96 98 99 99 99 99 99 100 100 100 100 100 100 100 100 100 100 100 100 100 100 100 100 100 99 99 98 99 98 98 99 99 99 99 99 100 100 99 99 99 98 98
71 71 71 71 70 68 65 62 59 57 56 57 59 63 67 69 70 70 70 72 79 87 94 96 98 99 99 99 99 97 96 93 88 83 76 70 66 64 65 71 77 83 89 93 97 99 100 99 99 99 99 99 100 100 100 100 100 100 100 100 100 100 100 100 100 100 100 100 99 99 99 99 99 99 100 100 100 100 100 100 100 100 99 99 99 99
73 72 72 71 69 67 64 61 59 58 57 59 62 65 69 72 72 72 70 70 74 81 89 92 94 96 98 99 99 99 99 98 94 88 81 75 70 67 67 73 79 85 89 93 96 99 100 100 99 99 98 99 100 100 100 100 100 100 100 100 100 100 100 100 100 100 100 100 100 99 99 100 100 100 100 100 100 100 100 100 100 100 100 99 99 99
74 73 72 70 68 65 63 61 59 59 59 61 65 69 75 77 77 74 71 69 70 76 85 90 92 94 97 98 99 99 99 99 97 94 87 81 75 70 69 74 80 85 89 92 95 97 99 100 100 100 99 100 100 100 100 100 100 100 100 100 100 100 100 100 100 100 100 100 100 100 99 100 100 100 100 100 100 100 99 100 100 100 100 99 99 99
78 75 72 69 66 64 63 62 61 61 62 65 69 75 81 83 81 77 72 69 68 71 78 86 92 96 98 99 99 99 99 98 96 93 89 83 77 72 70 75 80 85 88 90 92 95 98 99 100 100 100 100 100 100 100 100 100 100 100 100 100 100 100 100 100 100 100 100 100 100 100 100 100 100 100 100 100 100 99 100 100 100 99 99 99 99
83 79 74 69 67 66 66 65 65 65 66 70 76 82 88 88 84 79 74 71 69 69 73 81 90 97 100 99 99 97 95 93 91 89 85 80 75 72 72 76 81 85 87 88 90 92 95 98 99 100 100 100 100 100 100 100 100 100 100 100 100 100 100 100 100 100 100 100 100 100 100 100 100 100 100 100 100 100 99 99 99 99 99 99 99 98
90 83 77 72 70 70 71 71 71 70 70 74 81 89 95 92 86 79 75 72 70 70 71 77 87 95 100 100 99 96 93 90 88 86 83 79 75 72 72 77 81 85 87 87 88 90 92 95 98 99 100 100 100 100 100 100 100 100 100 100 100 100 100 100 100 100 100 100 100 100 100 100 100 100 100 100 100 99 99 99 99 99 99 99 98 97
95 91 84 78 75 74 75 76 76 75 73 75 82 90 95 92 87 81 76 72 70 69 69 75 83 92 98 99 99 98 96 93 91 90 88 83 78 74 72 75 79 83 86 87 88 89 91 94 96 98 100 100 100 100 100 100 100 100 100 100 100 100 100 100 100 100 100 100 100 100 100 100 100 100 100 100 99 99 99 99 99 99 98 97 96 95
97 97 94 89 84 81 80 80 80 78 75 75 80 87 92 90 87 84 80 75 71 68 65 69 77 87 96 99 100 100 99 98 97 96 94 89 82 76 71 72 75 79 83 86 87 89 91 93 95 97 99 100 100 100 100 100 100 100 100 100 100 100 100 100 100 100 100 100 100 100 100 100 100 99 99 99 99 99 99 99 98 97 96 95 93 92
93 95 98 96 93 89 85 83 82 81 78 77 81 88 94 90 87 85 84 81 76 72 68 68 74 83 96 99 100 100 100 100 99 98 97 93 87 80 74 72 72 74 78 82 86 89 92 95 96 98 99 100 100 100 100 100 100 100 100 100 99 99 99 100 100 100 100 100 100 100 100 100 99 99 99 99 98 98 97 96 95 94 93 91 90 90
94 94 95 96 94 92 88 86 84 82 80 81 86 92 97 92 88 86 87 83 79 76 75 72 75 82 96 99 100 100 100 100 100 99 99 97 93 90 85 81 77 76 76 80 85 90 94 97 98 99 99 100 99 99 99 99 99 100 99 99 99 99 99 99 100 100 100 100 100 100 99 99 99 99 99 98 97 96 94 93 92 91 90 89 88 88
98 98 97 97 95 92 89 87 84 82 82 82 84 89 94 91 88 86 88 85 81 78 78 77 79 83 95 99 100 100 100 100 100 100 99 99 98 97 96 93 89 85 82 83 87 92 97 99 99 99 100 100 99 99 98 99 99 99 99 99 99 98 99 99 100 100 100 100 100 99 99 99 99 99 98 96 95 93 91 90 90 90 89 88 88 87
98 98 99 99 97 95 94 93 92 90 88 89 90 91 90 88 86 87 89 88 83 80 79 81 83 88 97 99 100 100 100 100 100 100 100 100 100 100 100 99 96 93 90 91 94 97 99 100 100 100 100 100 99 99 99 99 99 99 98 97 96 96 97 99 100 100 100 100 100 99 99 99 99 98 97 95 92 90 89 88 89 89 89 88 87 86
97 97 97 96 97 98 98 98 98 98 98 98 98 98 97 94 92 92 94 92 89 86 85 87 89 93 99 100 100 100 100 100 100 100 100 100 100 100 100 100 99 97 96 98 99 99 100 100 100 100 100 100 99 99 99 99 99 98 96 94 93 94 97 99 100 100 100 100 99 99 99 99 99 98 96 94 92 90 89 88 88 88 87 86 85 84
96 96 95 95 95 96 98 99 99 99 99 99 99 99 99 99 98 98 98 96 94 92 91 94 97 99 100 100 100 100 100 100 100 100 100 100 100 100 100 100 100 100 99 100 100 100 100 100 100 100 100 100 99 99 99 99 98 96 94 93 94 96 98 99 100 100 100 99 99 99 99 99 98 97 95 94 92 91 90 89 88 87 86 84 82 81
94 94 94 94 94 96 99 99 99 99 99 99 99 99 99 99 99 99 99 98 97 96 96 96 97 98 98 99 100 100 100 100 100 99 99 100 100 100 100 100 100 100 100 100 100 100 100 100 100 100 100 100 99 99 98 98 96 95 95 96 98 99 100 100 100 100 100 99 99 99 99 98 97 96 94 93 92 91 90 89 87 85 83 81 80 78
93 94 94 94 94 96 99 99 100 100 100 100 99 99 99 99 99 99 99 99 99 98 96 96 96 97 98 99 100 100 100 99 99 99 99 99 100 100 100 100 100 100 100 100 100 100 100 100 100 100 100 100 100 99 98 98 98 98 98 99 99 100 100 100 100 100 99 99 99 99 99 98 97 96 95 94 92 91 89 88 85 83 81 78 77 75
93 95 96 95 95 97 98 99 99 100 100 100 100 100 99 98 98 98 100 99 99 98 96 95 94 95 98 99 99 99 100 99 99 99 99 100 100 100 100 100 100 100 100 100 100 100 100 100 100 100 100 100 100 99 99 99 99 100 100 100 100 100 100 99 99 99 99 99 99 99 99 99 98 97 96 94 92 89 87 85 82 80 78 76 74 72
94 95 97 96 97 97 98 98 99 99 100 100 100 100 100 99 99 99 99 99 99 98 95 92 92 94 96 98 99 99 99 99 98 98 99 99 100 100 100 100 100 100 100 100 100 100 100 100 100 100 100 99 99 100 100 100 100 100 100 100 100 100 100 99 99 99 99 99 99 99 99 98 97 95 93 91 88 86 83 81 79 76 74 72 69 65
95 96 97 97 97 98 97 98 98 99 99 99 99 100 100 100 100 100 99 100 99 99 96 91 91 93 95 97 99 99 100 99 97 96 97 99 100 100 100 100 100 100 100 100 100 100 100 100 100 100 100 99 99 100 100 100 100 100 99 99 99 99 99 99 99 99 99 99 98 97 96 95 93 91 89 86 84 82 80 77 75 72 69 66 62 56
95 95 95 96 97 98 98 98 98 98 99 99 99 100 100 100 100 100 100 100 100 99 98 92 90 90 93 96 98 99 99 99 97 95 95 97 99 100 100 100 100 100 100 100 100 100 100 100 100 100 100 100 100 100 100 100 100 99 99 99 99 99 99 99 99 99 98 98 97 95 94 92 90 87 85 82 80 77 75 73 70 67 64 58 52 46
94 94 95 96 97 97 98 98 98 98 98 98 99 99 99 99 99 99 99 99 99 99 99 96 93 91 92 95 97 99 100 98 95 93 93 96 99 100 100 100 100 100 100 100 100 100 100 100 100 100 100 100 100 100 100 100 99 99 99 99 99 99 99 99 99 98 98 96 95 93 91 89 87 84 81 78 76 73 71 68 65 61 56 49 42 36
94 95 95 95 96 97 97 98 98 98 98 98 99 99 99 99 98 97 96 98 99 99 100 99 97 96 96 97 98 99 100 98 95 93 92 96 99 100 100 99 100 100 100 100 100 100 100 100 100 100 100 100 100 99 99 99 99 99 99 99 99 99 99 98 98 97 96 94 92 90 88 86 84 81 78 75 73 70 68 64 59 54 48 40 35 31
94 94 94 95 95 95 96 97 98 98 98 98 99 99 100 99 99 97 96 97 98 99 100 100 100 100 100 100 100 100 100 99 97 94 92 95 98 100 99 99 99 100 100 100 100 100 100 100 100 100 100 100 99 99 99 99 99 99 99 98 98 97 97 96 95 93 91 90 88 86 84 82 80 78 75 73 71 69 67 63 57 51 44 39 35 33
94 94 94 94 95 95 95 96 97 98 98 98 98 99 100 100 99 99 99 99 99 100 100 100 99 99 100 99 99 99 100 99 97 94 91 94 97 99 99 99 99 99 99 99 100 100 100 100 100 100 100 100 99 99 99 99 99 98 98 97 96 95 93 91 90 88 87 85 83 82 80 79 78 76 74 71 69 66 64 57 51 45 39 36 34 35
94 94 94 94 95 95 95 95 96 97 98 98 98 99 99 99 99 99 99 99 99 100 100 99 97 97 99 99 99 99 99 100 98 95 91 92 95 98 100 100 100 99 99 99 99 99 100 99 99 100 100 99 99 99 99 99 99 98 97 96 93 91 89 88 87 86 85 84 83 82 81 80 78 76 73 70 66 61 56 49 43 38 34 34 35 37
93 93 94 94 94 95 95 95 96 96 97 97 97 98 98 98 98 98 98 99 99 99 99 98 95 94 96 97 98 99 99 99 99 97 93 91 93 97 100 100 99 99 99 99 99 99 99 99 99 99 99 99 99 99 99 99 99 98 98 95 93 91 89 88 88 87 86 85 84 83 82 79 76 73 69 65 61 56 50 45 42 39 38 40 42 44
89 90 91 93 93 94 94 94 95 95 96 96 96 96 96 97 96 96 97 98 99 99 99 97 95 93 93 95 96 98 98 99 99 99 96 92 94 97 99 99 99 98 97 98 98 99 99 99 98 99 99 99 99 99 98 97 97 96 96 94 92 91 89 88 87 86 85 83 81 79 76 73 69 66 62 58 55 51 48 46 45 46 48 50 52 55
87 87 88 90 92 92 93 93 94 95 95 95 95 95 95 95 95 96 96 97 98 98 99 98 96 94 94 95 96 96 95 97 99 99 97 93 94 96 99 98 97 95 93 93 95 97 99 98 98 98 99 99 98 97 95 94 92 90 88 87 85 84 83 82 81 80 78 76 74 71 69 66 63 61 58 55 53 52 51 51 53 55 58 62 65 67
88 88 88 89 90 92 92 93 93 94 94 94 94 95 95 95 95 96 96 97 97 98 99 99 97 96 94 92 93 93 92 96 98 99 98 92 92 94 98 96 94 92 88 86 88 93 96 98 98 98 98 99 98 97 94 92 89 86 85 83 82 81 79 77 76 75 75 74 72 71 70 68 66 65 64 63 63 63 63 64 65 68 71 73 76 77
89 89 88 89 90 91 92 92 93 93 93 93 94 94 95 95 95 96 96 96 97 97 99 99 99 97 94 90 89 91 94 96 98 99 99 94 92 93 95 93 92 90 86 82 83 86 93 98 99 98 98 98 98 98 97 96 94 92 92 92 92 91 88 85 84 85 85 84 82 81 80 78 77 77 76 76 77 77 77 77 78 78 79 79 78 75
87 88 87 88 89 90 91 92 92 93 93 94 94 94 94 94 95 95 96 96 97 97 98 99 99 99 98 95 94 94 94 95 97 99 100 96 93 92 92 92 92 91 89 86 85 86 90 95 98 99 99 99 99 99 99 99 99 99 98 99 99 99 98 96 96 96 96 96 94 93 91 90 88 87 86 86 85 85 84 82 81 79 78 74 69 62
86 86 86 87 88 90 91 91 92 93 93 94 94 94 94 94 94 95 95 96 96 97 97 98 99 99 99 99 99 98 95 94 96 99 100 98 95 93 93 92 92 92 92 91 90 90 90 94 96 97 99 99 99 99 99 99 99 99 99 100 100 100 100 99 99 99 99 99 98 97 96 94 92 89 87 85 82 78 75 72 70 68 65 61 56 50
84 85 86 86 87 89 90 91 92 93 93 93 94 94 94 94 94 95 95 95 96 96 97 98 99 99 99 100 100 99 97 95 96 99 99 99 96 93 93 91 90 89 89 90 90 90 92 95 96 96 98 99 100 100 100 99 99 99 99 100 100 100 99 99 99 98 98 97 95 94 91 88 84 80 74 69 63 58 55 52 51 50 49 47 45 44
83 84 85 86 87 88 89 91 91 92 93 93 93 94 94 94 94 94 95 95 95 96 96 97 98 99 99 99 100 99 99 97 97 98 99 99 97 95 92 90 89 87 86 87 87 89 92 95 96 96 97 99 100 100 100 100 100 99 99 99 100 99 99 98 97 96 95 93 91 88 85 80 75 70 65 58 52 48 45 44 43 43 43 43 44 44
81 83 85 85 86 88 89 90 91 92 93 93 93 93 94 94 94 94 94 95 95 95 96 97 98 99 99 99 99 100 99 98 98 98 100 99 99 97 94 92 89 87 86 87 88 89 92 95 96 96 97 98 99 100 100 100 100 100 99 99 99 99 99 97 95 93 91 90 87 84 81 77 73 70 68 63 58 53 49 48 47 47 48 50 52 54
80 82 84 85 86 87 88 90 91 92 92 92 92 93 94 94 94 94 94 94 95 95 96 97 98 98 99 99 99 99 99 99 99 99 100 99 98 97 95 93 91 89 88 89 90 91 91 92 93 94 95 97 99 100 100 100 100 100 99 99 99 99 98 96 94 92 90 88 86 84 81 76 74 72 70 65 61 58 56 56 56 56 57 60 61 63
79 81 83 84 86 87 89 90 91 92 92 92 92 93 93 93 93 93 93 94 95 95 95 96 97 98 99 99 99 99 100 100 100 100 100 99 97 95 94 94 93 92 91 92 91 91 89 89 89 90 92 96 98 100 100 100 100 99 99 99 99 99 99 98 95 93 90 88 87 85 82 77 74 71 68 64 60 58 58 60 60 61 61 63 65 65
79 80 82 84 86 87 88 90 91 92 92 92 92 92 92 92 91 91 92 94 95 95 95 96 97 98 99 99 99 99 100 100 100 100 99 97 95 94 94 94 94 93 93 92 92 90 89 89 89 89 90 93 97 99 99 99 99 99 99 99 99 99 99 99 97 95 92 90 88 86 83 79 75 71 68 64 60 57 57 59 60 61 60 60 61 62
80 80 81 83 85 87 88 88 90 91 92 92 92 92 92 92 92 92 91 93 94 95 96 96 97 97 97 98 99 99 99 99 100 100 99 98 97 95 94 95 95 95 94 93 93 92 91 92 92 93 93 95 96 98 99 99 99 99 99 99 98 98 98 98 96 94 92 89 87 84 82 79 76 73 70 66 63 60 59 59 60 61 59 59 59 59
80 80 80 82 84 86 86 87 88 90 91 92 92 92 92 92 93 93 93 93 94 94 95 96 96 96 96 96 97 98 98 98 99 99 100 100 99 97 96 97 96 96 95 94 94 93 93 94 94 95 95 96 97 97 98 99 99 98 97 98 98 97 97 95 93 90 87 84 82 79 76 73 71 68 66 63 61 59 59 59 58 58 57 55 54 54
81 80 80 81 83 84 84 85 86 88 90 91 92 92 92 92 92 93 93 93 93 94 95 96 95 95 95 96 96 97 97 96 97 98 99 100 100 99 99 99 98 96 95 96 97 99 99 98 98 98 98 97 97 97 97 98 98 98 97 96 94 94 94 94 91 87 84 80 76 72 69 67 65 63 61 60 59 58 57 56 55 53 52 50 48 47
81 81 80 80 81 82 83 83 85 87 90 91 91 92 92 92 92 92 93 93 93 94 94 94 94 93 93 94 95 96 96 95 96 97 97 98 99 100 100 100 99 97 95 96 98 99 99 99 99 99 99 98 97 97 97 97 96 96 94 91 90 89 91 91 90 87 83 79 76 72 69 67 65 64 62 60 58 56 54 52 50 48 47 45 44 44
82 81 80 80 81 82 83 83 84 85 88 90 91 91 91 92 92 92 92 93 93 93 94 93 92 91 91 93 94 94 95 95 96 96 97 96 97 99 100 100 100 99 98 97 97 97 97 98 99 99 98 97 96 95 95 95 94 92 91 89 89 90 90 89 87 85 84 82 79 77 74 72 69 66 63 60 56 53 49 47 45 44 42 40 40 40
82 82 81 80 80 81 82 83 83 84 86 88 90 91 91 92 92 92 92 92 93 93 93 92 90 90 90 92 92 92 93 94 95 95 96 95 96 97 98 99 99 99 99 99 98 97 96 98 98 98 97 96 96 96 95 94 93 92 90 90 89 88 87 86 84 83 83 82 81 80 78 75 72 68 63 59 55 51 47 45 43 41 41 39 37 36
83 83 82 81 80 81 82 82 83 83 84 86 88 90 91 91 91 91 91 91 92 92 91 90 89 90 91 91 91 92 92 93 94 95 95 94 95 95 96 96 97 98 99 99 99 98 98 98 97 96 95 95 95 96 97 95 94 92 91 89 88 87 86 85 84 83 81 80 79 78 78 75 72 68 64 60 57 54 49 47 45 42 40 38 36 34
83 83 83 82 81 81 82 82 83 83 84 85 87 89 90 91 91 91 91 91 91 90 90 89 88 89 90 91 91 92 92 93 94 95 94 94 94 94 94 95 96 96 97 97 98 98 98 97 97 95 93 93 93 95 96 95 95 93 92 90 89 88 88 87 85 83 81 80 79 78 77 75 73 70 67 65 63 60 57 55 51 48 44 41 38 35
83 84 84 82 81 81 82 82 83 84 84 85 86 87 88 90 90 90 91 91 90 90 89 89 88 88 89 90 91 92 92 93 93 94 94 94 94 94 94 95 95 96 96 96 97 97 97 97 97 96 96 94 94 94 95 95 95 94 94 93 92 91 90 88 86 84 82 81 80 80 79 78 77 75 73 70 69 68 66 63 60 56 51 47 42 39
83 83 84 83 82 81 81 82 83 83 84 84 85 86 87 88 89 90 90 90 90 90 90 90 89 88 89 90 91 91 91 92 92 93 94 94 95 95 95 96 96 96 95 95 96 95 95 95 96 96 96 95 95 95 95 95 95 95 95 94 93 92 90 88 86 84 83 83 83 82 82 81 81 80 77 74 72 70 69 67 64 62 58 53 48 44
83 83 83 83 82 81 81 82 82 83 84 84 84 85 85 86 87 88 89 89 89 89 90 90 90 89 90 90 91 91 91 91 92 92 93 94 95 95 96 96 95 94 92 92 91 90 90 90 92 94 95 95 95 95 94 95 95 94 95 95 94 92 90 88 87 85 84 84 83 83 82 81 80 78 75 71 69 69 68 66 65 64 63 58 54 50
Wind_Speed
24 25 25 25 25 25 26 26 25 24 25 24 23 21 20 19 19 18 16 14 13 15 17 18 18 19 20 21 23 24 25 25 25 25 25 24 24 23 23 24 25 27 28 29 30 30 30 29 29 29 30 30 31 32 32 32 33 33 34 35 36 36 36 34 33 33 34 37 39 40 38 37 36 35 35 35 36 37 37 37 36 36 38 38 38 38
24 24 25 25 25 24 24 25 24 23 23 22 21 20 20 20 20 19 18 15 13 13 15 17 18 18 18 19 20 22 23 24 25 26 26 25 24 23 23 24 25 26 27 29 30 31 31 30 30 30 30 30 31 32 33 33 33 33 33 34 35 35 35 33 32 32 32 34 38 41 40 39 38 36 35 34 34 35 35 35 36 38 40 40 39 38
22 23 24 24 24 22 22 22 22 21 20 20 20 19 19 20 20 20 19 17 14 12 13 15 17 18 19 19 20 20 22 23 25 26 27 26 25 24 23 24 24 25 27 28 30 31 32 31 31 31 31 30 31 31 32 33 34 33 33 33 33 34 34 33 32 31 32 33 37 40 41 40 38 35 32 31 31 32 33 33 36 40 41 41 40 39
22 22 24 23 22 21 21 21 21 20 19 18 18 19 19 20 19 19 18 17 15 12 11 13 15 18 19 20 20 21 21 23 25 26 27 27 26 26 25 24 24 25 26 27 29 31 32 32 32 31 31 31 31 31 32 33 34 34 34 33 34 34 33 32 31 30 31 33 37 40 42 40 36 32 29 29 30 32 34 34 37 40 42 41 40 39
23 23 24 23 21 20 20 20 20 19 18 18 18 19 20 20 19 18 18 17 16 13 10 10 12 16 19 21 22 22 22 22 24 26 27 28 28 27 26 26 25 25 26 27 28 30 32 32 32 32 32 32 31 31 31 33 34 36 36 35 35 34 33 31 30 29 30 32 36 40 41 38 33 29 28 29 32 35 37 37 38 40 41 41 40 39
23 23 23 21 20 19 19 19 19 18 17 17 18 19 20 20 19 17 16 16 16 14 12 10 11 14 18 21 22 23 23 23 24 25 27 28 28 28 28 27 26 26 26 26 27 29 31 32 33 33 33 32 32 32 32 33 35 37 37 36 34 33 32 30 29 29 29 30 34 37 38 35 31 29 29 31 35 39 40 40 40 41 42 41 40 39
21 21 21 20 19 18 19 19 19 17 16 17 18 19 20 20 18 16 15 14 14 14 14 13 13 15 18 20 21 22 23 24 25 25 26 27 27 28 28 28 27 26 26 26 27 28 30 31 32 33 33 32 32 32 33 34 36 36 36 34 32 31 30 29 29 28 28 29 29 31 33 31 30 31 33 36 39 42 43 42 42 43 43 41 39 38
18 19 19 19 18 18 18 19 19 17 16 17 18 19 19 19 17 15 14 13 13 13 14 15 16 17 17 18 19 21 23 23 24 25 25 25 26 26 27 28 27 26 26 26 26 27 29 30 32 33 33 32 31 30 31 33 35 35 34 32 30 29 28 28 28 28 28 28 27 26 27 28 31 35 39 42 44 44 43 42 43 43 43 41 38 37
17 17 17 18 17 17 16 17 17 17 17 18 19 20 20 17 15 13 13 13 13 14 15 16 18 18 17 17 19 20 22 23 24 24 24 24 24 25 26 27 26 26 26 26 26 27 28 29 31 32 32 31 30 29 29 31 32 32 32 31 29 28 27 28 28 27 27 28 26 25 27 29 35 41 46 47 47 45 43 42 42 42 41 39 37 36
17 16 16 16 17 16 16 15 16 17 18 20 21 21 20 16 12 10 11 12 13 14 16 17 18 18 18 18 19 21 23 24 24 24 24 24 24 24 25 25 26 26 26 26 26 27 28 29 29 30 31 31 30 29 29 29 30 30 30 30 29 28 28 28 28 27 27 27 26 26 28 33 41 48 50 50 48 45 42 41 40 39 39 38 37 36
16 17 16 14 14 15 16 16 16 17 18 20 21 21 20 16 12 9 9 10 11 13 15 17 17 17 17 17 19 21 23 24 24 24 24 25 24 24 24 24 25 25 25 25 25 26 27 28 29 29 30 30 29 29 29 29 28 28 29 29 28 28 28 28 28 27 27 27 27 28 31 38 46 51 50 49 46 44 42 40 39 39 39 38 38 37
14 16 15 14 13 13 14 15 16 17 17 18 18 17 16 15 12 9 9 9 10 12 13 15 17 17 17 16 18 20 21 21 21 22 23 24 24 24 24 24 24 24 24 24 24 25 26 27 27 28 28 28 28 28 28 28 27 27 27 27 27 27 28 28 28 27 27 28 29 31 36 43 48 49 47 46 45 44 42 41 40 40 39 39 38 38
10 11 12 12 13 13 14 14 14 15 16 16 14 13 11 11 10 9 9 10 11 12 13 14 16 17 16 15 16 17 18 18 19 19 21 22 24 25 25 25 25 25 24 24 24 24 25 26 26 27 27 27 26 26 27 27 27 27 27 27 27 28 28 29 29 28 28 30 32 35 41 45 47 46 45 45 45 45 44 43 42 41 40 40 39 38
9 9 9 8 8 9 10 12 12 12 13 13 11 9 8 8 9 9 9 10 12 13 13 14 16 16 15 13 15 17 18 18 18 18 19 20 22 24 26 26 26 26 25 24 23 24 24 25 25 26 26 26 25 25 25 26 26 27 27 27 28 29 29 29 29 29 31 32 35 40 45 46 45 44 45 46 46 45 45 44 43 42 41 40 39 38
9 9 8 7 7 8 9 8 8 8 8 8 9 9 7 5 8 10 9 9 10 11 12 13 15 16 14 12 14 17 19 19 18 17 16 17 20 23 26 27 27 27 25 24 24 24 25 25 25 25 26 26 26 25 25 26 26 27 28 29 30 30 30 29 29 30 33 36 40 45 48 47 45 45 45 46 46 46 45 45 44 43 41 40 39 38
9 9 7 7 8 10 12 12 11 11 11 12 11 10 8 5 3 7 9 9 9 9 10 11 11 12 12 11 13 16 18 19 19 18 16 14 17 21 24 26 27 27 26 25 25 25 26 25 25 26 26 26 26 26 25 25 26 28 29 30 31 31 31 31 32 33 36 41 46 49 49 48 47 47 46 46 46 46 46 45 45 43 42 41 40 39
10 9 8 7 8 9 11 11 11 11 12 13 13 11 8 7 5 2 6 9 10 9 9 9 5 2 5 6 11 16 17 18 19 18 16 13 13 17 22 24 26 27 26 26 26 26 26 26 26 26 26 26 26 26 25 26 27 29 30 31 32 32 33 34 37 40 43 48 51 51 49 48 48 47 47 46 46 46 46 46 45 44 42 41 40 39
10 10 10 9 9 9 10 11 12 13 13 14 14 13 10 7 5 4 4 7 10 11 11 10 6 3 1 2 8 14 16 17 18 18 16 13 12 14 19 23 25 27 27 26 26 27 27 27 27 27 27 26 26 25 25 27 29 31 33 34 35 37 39 42 45 48 51 52 52 50 49 48 48 47 47 47 47 46 46 45 45 44 43 41 40 39
10 11 11 10 10 11 11 12 13 14 14 14 14 14 12 9 6 5 6 7 10 12 12 10 9 7 4 3 8 13 15 17 19 19 17 13 12 13 17 20 24 25 26 26 26 27 29 29 29 29 28 27 27 27 29 31 33 35 38 40 42 45 47 50 52 53 53 52 50 49 49 49 48 48 48 47 47 47 46 45 45 44 43 41 40 38
11 12 13 13 12 12 12 13 15 16 15 15 14 12 11 10 8 6 6 8 10 13 14 13 11 9 7 6 9 13 15 17 19 19 17 14 13 13 16 19 22 24 24 24 26 28 30 31 31 30 30 30 31 33 36 39 41 44 46 48 50 51 53 54 55 53 52 51 50 50 50 50 49 49 48 48 48 47 46 45 44 43 42 40 39 37
12 13 16 16 14 12 12 15 18 18 16 15 13 11 9 9 7 6 7 8 9 12 15 14 13 12 11 9 11 15 15 16 16 16 15 13 13 13 15 18 21 23 24 25 26 29 32 34 35 35 36 35 37 41 46 48 50 51 52 53 51 51 54 54 54 52 52 51 51 51 51 51 50 50 49 48 47 46 46 45 43 42 40 39 37 35
13 14 17 18 16 14 14 17 18 18 17 14 11 9 8 7 6 6 7 8 8 9 12 13 14 13 13 12 14 17 16 15 16 16 14 11 10 11 14 17 20 23 25 27 28 31 34 36 38 40 42 43 45 49 51 53 53 54 54 54 53 54 54 53 53 52 52 52 52 52 51 51 50 49 49 48 46 45 44 43 41 40 38 36 34 33
17 17 19 19 18 17 17 18 19 19 17 15 11 9 8 8 9 10 11 10 9 9 9 11 14 15 15 15 16 17 17 16 17 18 14 8 6 10 14 17 21 24 26 28 31 33 35 36 39 43 47 49 51 53 54 54 55 55 55 54 54 54 53 53 54 53 53 53 52 51 51 50 49 49 48 46 45 43 41 40 38 37 35 34 32 31
20 20 20 20 20 19 20 19 20 20 19 16 12 9 8 9 11 12 14 13 12 10 8 9 13 14 15 16 16 16 17 17 17 16 12 8 8 11 14 18 21 24 27 30 32 34 36 38 40 44 48 51 53 54 54 54 55 54 55 55 54 54 54 54 54 53 53 52 52 50 49 48 47 46 45 43 41 39 37 35 33 32 31 30 29 28
20 20 20 20 19 19 20 20 21 21 21 18 13 9 7 8 10 11 13 12 11 10 7 9 11 11 11 12 13 13 15 17 18 17 14 11 10 12 15 19 22 24 27 31 35 38 40 40 40 43 46 49 52 53 54 54 54 54 54 54 54 54 54 53 53 52 52 51 50 48 47 45 44 42 40 38 36 34 33 31 30 29 29 28 28 27
19 19 19 19 18 18 19 20 21 22 21 19 15 10 5 3 5 6 8 9 9 9 9 8 8 8 9 8 8 9 11 15 18 20 19 15 12 12 15 19 23 25 28 31 35 38 39 38 38 39 44 47 49 51 52 53 53 53 53 53 54 53 53 52 51 50 49 48 47 46 44 43 41 40 39 37 36 35 35 34 33 32 32 31 30 29
19 19 19 19 19 19 19 20 21 22 22 20 16 11 6 3 2 2 2 4 5 7 9 5 4 5 8 7 6 6 8 11 16 21 23 20 15 12 13 19 24 28 28 29 32 35 37 36 36 37 41 44 46 48 50 51 51 52 52 52 52 52 51 50 49 48 47 46 45 44 43 43 42 41 41 40 39 38 38 36 35 34 33 32 30 28
21 21 20 21 21 20 21 21 21 22 23 22 19 15 12 9 9 10 11 7 6 5 7 5 4 3 5 7 7 5 4 6 12 19 25 23 18 14 15 21 26 29 29 28 31 35 35 34 34 35 38 41 44 45 47 48 49 50 50 51 51 50 49 48 48 47 46 46 45 44 43 43 42 41 40 39 38 37 36 35 33 32 31 29 28 26
23 23 23 23 23 23 22 23 22 22 22 23 22 20 18 17 16 15 13 9 7 7 7 8 8 8 7 10 9 5 2 3 9 17 23 23 20 17 19 22 25 28 28 27 29 32 32 31 31 33 36 39 41 43 44 45 46 46 47 48 48 48 47 47 46 45 44 44 43 42 41 40 39 38 37 36 35 34 33 32 30 29 28 27 25 24
25 25 25 25 25 25 25 24 23 23 23 23 24 24 23 23 21 19 16 12 10 8 7 8 11 12 12 12 9 3 2 3 6 14 20 22 21 21 22 22 23 25 26 23 18 15 21 26 29 30 32 34 37 40 40 40 40 40 40 41 41 41 41 41 41 40 39 38 37 36 35 34 34 33 32 32 31 30 30 29 29 28 27 25 24 22
25 25 26 26 26 26 26 25 25 24 24 24 24 25 25 25 24 22 19 16 14 11 8 7 11 15 16 10 5 2 2 5 5 10 16 22 25 26 25 22 22 23 25 22 10 2 7 13 21 27 29 30 32 34 35 34 34 34 33 32 32 32 32 32 32 32 31 31 30 30 29 29 29 29 28 28 28 28 28 29 29 28 27 26 24 23
23 24 24 24 25 25 26 25 25 25 26 26 26 26 26 26 25 24 22 20 18 14 9 4 6 12 16 13 9 5 4 5 6 7 12 20 26 29 29 26 23 22 22 24 20 12 7 5 13 23 28 28 28 28 29 30 30 30 30 30 29 29 28 28 28 28 27 26 26 26 26 26 26 27 27 27 28 28 28 29 29 29 28 27 26 24
22 23 23 24 24 25 25 25 25 26 26 27 27 27 27 26 26 25 24 22 20 17 13 8 5 6 10 13 13 11 10 10 8 7 11 18 24 28 30 29 26 23 21 22 24 23 17 14 17 22 25 26 26 27 28 29 31 32 33 33 33 33 31 31 31 30 29 28 28 27 27 27 27 27 27 28 28 28 28 29 29 29 28 28 27 26
22 22 23 24 24 24 25 25 25 26 26 27 27 27 27 27 27 26 25 23 22 20 16 13 11 10 9 10 12 14 14 14 12 8 10 15 22 27 29 30 29 26 24 22 23 24 25 25 25 25 24 26 27 27 28 30 32 34 36 37 37 36 36 36 35 34 33 32 31 30 29 29 28 28 28 28 29 29 29 29 28 28 28 28 27 26
21 22 23 23 24 24 24 25 26 26 26 26 26 27 27 27 27 26 25 24 23 22 20 17 14 12 11 10 10 11 13 15 14 10 9 13 21 27 28 29 30 30 28 26 25 25 24 25 28 29 26 25 26 28 29 30 31 34 36 38 38 38 38 39 38 37 36 35 34 33 32 31 30 30 29 29 29 29 29 28 28 27 26 25 24 24
20 21 22 23 23 23 23 24 25 26 26 26 26 26 26 26 26 25 24 24 23 22 22 21 19 16 15 14 13 12 13 16 16 12 8 12 20 25 26 28 31 33 31 31 30 28 25 24 27 29 28 24 22 23 27 31 34 35 36 37 38 39 39 40 40 39 38 37 35 34 33 32 31 30 29 28 27 27 27 26 25 24 23 22 21 19
19 20 21 22 22 22 22 23 24 25 25 25 26 26 26 25 25 24 23 23 22 23 23 23 22 21 18 17 15 14 14 17 17 13 9 12 19 24 25 27 31 34 33 32 32 31 29 25 25 26 25 22 20 20 23 30 34 34 35 37 38 39 39 40 40 40 39 38 36 35 34 33 32 30 29 27 27 26 25 24 23 22 21 20 18 17
19 19 20 21 22 22 22 23 23 24 24 24 25 25 25 25 24 23 22 21 21 22 23 24 25 24 22 20 18 16 15 15 15 13 11 14 20 26 28 29 30 33 33 33 34 34 32 27 21 18 18 20 22 24 27 29 31 31 33 35 37 38 38 39 39 39 38 37 36 35 34 34 33 32 30 29 28 27 26 24 23 22 21 19 18 16
19 19 20 20 21 21 21 22 22 23 24 23 23 24 24 24 23 22 22 20 20 20 21 24 26 27 26 24 22 19 17 15 14 14 15 18 24 29 32 32 32 32 32 33 34 35 34 31 26 22 20 20 21 23 27 28 30 31 32 34 35 35 35 36 37 37 37 37 36 35 34 33 32 31 30 28 27 27 26 24 23 21 21 20 19 17
19 19 19 20 20 20 21 21 22 22 23 23 23 23 24 24 24 23 22 21 19 19 20 23 26 29 29 28 26 24 22 20 19 19 20 23 27 30 33 35 35 34 33 32 30 30 29 29 29 30 30 26 24 23 25 26 28 31 32 29 26 26 29 32 34 35 35 35 35 34 32 31 30 29 28 26 25 25 24 23 22 20 18 18 19 19
19 19 20 20 20 20 21 21 21 22 22 23 24 25 26 26 25 24 24 22 21 20 19 21 26 30 32 31 30 28 26 24 24 24 25 26 27 30 33 35 36 36 35 32 29 29 29 28 28 29 29 29 28 27 26 25 26 28 29 26 24 25 27 30 32 33 33 33 33 32 31 30 29 27 26 25 23 22 21 20 19 18 16 14 15 16
19 19 20 20 20 20 20 21 21 22 24 24 25 26 27 26 25 24 23 22 22 21 20 21 25 29 31 32 32 31 30 28 27 26 27 28 29 30 32 33 34 35 36 34 33 31 31 30 29 29 29 28 28 26 24 24 25 26 26 27 27 27 26 26 28 30 31 30 30 30 30 29 28 27 25 24 23 21 19 18 17 16 15 14 12 12
19 19 19 20 20 20 20 21 22 23 24 25 26 26 26 25 24 23 21 21 21 20 19 20 23 26 28 29 30 31 31 30 29 28 28 28 28 29 30 31 32 35 37 37 35 32 30 30 29 27 27 28 28 27 25 24 23 24 26 28 29 26 20 21 23 26 27 28 29 29 29 29 28 27 26 24 23 21 20 18 17 16 15 14 13 12
19 19 20 20 21 21 21 22 22 23 24 24 25 25 25 25 25 23 21 21 20 20 19 19 22 25 27 26 26 26 28 30 31 30 29 28 29 30 30 31 32 34 38 38 36 33 32 30 28 26 26 27 27 27 26 25 24 24 24 26 27 25 22 22 25 26 27 28 28 29 29 29 28 27 25 24 22 20 19 18 17 16 14 14 13 13
19 20 21 21 21 22 22 22 22 22 22 23 24 24 24 25 24 23 22 21 21 21 20 19 20 22 23 23 23 23 25 27 29 30 29 29 29 30 32 32 33 34 36 37 37 36 33 30 27 27 27 27 27 26 26 25 25 24 22 23 23 24 25 27 28 28 28 28 28 28 28 28 27 26 25 22 20 19 17 16 15 14 13 12 12 11
20 21 21 22 22 22 22 22 22 22 22 22 23 24 24 24 24 23 22 21 21 21 21 21 22 22 21 20 21 22 22 24 25 27 28 29 30 31 32 33 34 35 36 35 35 35 34 31 29 28 28 26 25 23 24 24 24 23 22 23 24 25 26 26 26 27 28 29 28 27 25 25 25 25 24 22 20 19 17 16 15 14 13 12 11 10
21 21 22 22 22 22 22 22 22 22 22 22 23 23 23 23 23 23 23 22 21 20 21 22 24 23 22 21 20 20 20 21 21 23 24 26 28 31 32 34 36 37 37 36 35 33 32 30 29 29 28 26 23 21 21 22 23 23 23 24 25 25 24 23 23 24 26 27 27 25 24 23 23 24 24 23 21 19 18 16 15 14 13 12 11 11
21 21 21 21 22 22 22 23 22 22 21 22 22 23 23 23 23 22 22 22 22 21 21 22 23 23 22 21 21 20 20 20 20 21 22 23 25 28 31 34 36 37 38 38 37 36 33 31 28 27 26 25 24 22 21 21 22 23 23 24 25 25 24 24 24 24 25 25 24 23 22 22 23 24 24 23 22 19 17 16 14 13 12 11 11 11
20 21 21 21 21 22 21 22 22 22 21 21 21 22 23 23 23 22 22 21 21 21 21 21 21 21 21 20 20 20 20 20 20 20 20 20 21 23 27 30 33 35 36 37 37 37 36 34 31 28 25 24 23 23 22 22 22 22 23 24 25 25 25 25 24 24 24 23 22 21 21 21 22 23 24 24 22 20 17 15 14 13 12 11 11 10
20 20 21 21 21 21 21 21 21 21 21 21 21 21 22 23 23 23 22 22 21 21 21 21 21 20 20 20 20 20 20 20 20 20 20 19 18 19 21 24 28 31 31 32 32 33 33 32 31 29 27 24 22 22 22 22 22 22 22 22 23 24 25 24 24 23 23 22 21 20 19 20 20 20 21 23 23 21 18 16 14 13 12 11 10 10
20 21 21 21 21 21 21 21 20 20 20 20 20 20 21 22 22 23 22 22 22 21 21 20 20 20 20 19 19 20 20 20 20 20 19 18 17 16 17 19 22 25 25 24 24 24 23 22 22 23 25 23 21 20 21 22 22 23 21 21 22 23 24 24 23 23 22 21 20 19 19 19 19 19 20 22 22 21 19 17 16 14 12 11 10 10
Wind_Direction
265 268 272 275 277 279 281 284 287 290 293 297 302 306 309 311 312 311 305 290 267 248 237 232 230 232 234 237 238 238 237 236 236 237 238 240 241 240 238 234 231 227 224 222 220 219 218 219 219 219 221 223 224 224 223 221 219 217 214 214 214 212 208 205 202 200 198 195 193 193 194 193 192 193 195 196 196 195 193 189 185 183 180 178 177 177
266 268 270 271 272 273 276 280 283 286 291 295 299 303 306 307 307 306 304 298 281 259 243 235 232 232 233 236 236 236 234 233 234 235 238 240 241 241 239 235 231 228 224 222 220 218 218 219 219 219 220 222 223 223 222 221 221 219 217 216 216 214 210 206 203 202 200 196 193 192 193 193 192 192 193 194 195 195 192 187 182 179 177 175 175 175
269 269 268 267 268 269 272 277 281 285 289 293 296 300 303 302 301 300 300 301 294 276 252 240 235 234 235 235 235 234 233 233 234 235 238 241 243 243 240 236 232 228 225 222 219 218 218 218 219 219 220 222 223 223 221 221 222 223 221 220 219 216 212 206 204 204 203 198 194 192 193 193 192 191 190 191 191 189 185 179 176 174 174 173 173 173
269 268 266 266 266 267 270 275 280 284 287 291 295 297 297 295 293 293 295 299 300 292 268 248 241 240 240 238 236 234 234 234 235 237 240 243 245 245 242 237 232 229 227 224 221 218 217 217 218 218 219 221 223 223 222 222 223 224 224 223 221 218 212 206 204 205 205 201 196 194 195 194 192 190 189 187 184 180 175 170 168 168 169 170 171 170
267 264 263 263 265 267 270 274 279 283 287 291 293 294 291 287 285 286 290 295 298 298 287 265 252 250 249 245 241 237 236 236 237 239 242 245 247 247 243 237 232 229 227 226 223 221 219 218 217 217 218 220 221 222 222 222 223 223 222 221 219 216 210 205 203 204 204 200 196 195 196 195 193 190 188 184 178 173 169 165 163 164 166 168 168 167
267 262 259 259 261 265 270 273 277 281 287 291 292 290 284 279 277 279 285 292 297 300 299 286 269 260 256 251 247 244 242 242 242 243 244 246 246 246 243 237 233 229 228 227 226 224 221 220 219 218 218 218 218 219 221 223 223 222 219 216 214 212 207 203 203 204 204 200 197 195 195 194 192 188 185 179 174 169 165 163 162 163 165 165 164 162
270 262 256 256 259 264 269 272 274 277 283 287 287 283 277 271 269 271 279 288 295 301 302 296 282 267 257 252 251 251 250 249 248 247 246 245 244 243 240 236 233 230 229 228 227 226 224 223 222 221 220 218 217 217 219 222 223 221 217 213 212 210 206 204 205 206 207 205 200 197 195 193 189 184 179 174 170 166 164 162 162 162 163 162 160 157
277 267 258 255 258 264 268 269 269 270 272 275 275 271 265 262 262 265 272 281 288 294 296 294 288 276 260 250 250 254 255 254 252 250 247 244 241 238 236 233 232 230 229 229 228 227 226 225 225 225 224 222 219 217 218 222 223 221 216 214 213 211 208 206 207 208 209 208 205 202 200 197 189 180 173 169 166 164 162 162 161 160 160 159 157 155
281 274 264 257 256 259 264 266 266 265 263 262 262 260 256 254 256 262 268 274 278 282 285 286 286 282 269 253 247 248 251 252 251 249 247 243 239 235 232 230 229 229 229 229 228 227 226 226 226 227 228 226 223 221 221 222 222 220 215 214 213 212 210 209 208 208 208 207 206 207 208 199 186 176 170 167 165 163 160 160 159 158 157 155 154 152
279 279 272 261 253 252 255 260 262 262 260 260 258 255 252 249 249 255 262 268 272 275 277 280 283 283 277 261 248 243 243 245 246 246 245 243 240 236 232 229 228 228 228 228 227 226 226 226 227 228 229 229 227 225 223 223 222 219 214 212 212 212 211 211 210 208 205 205 206 208 206 191 178 171 168 166 165 162 159 158 157 155 153 151 150 149
273 276 274 268 260 254 253 256 260 263 263 261 257 251 247 244 243 246 255 263 270 274 276 279 282 282 275 263 251 243 240 240 241 242 242 243 242 239 235 231 228 228 227 227 225 224 224 224 226 227 229 230 229 226 224 224 223 219 212 209 209 210 211 211 210 208 206 203 204 203 195 178 170 167 166 166 165 161 158 155 153 151 150 148 147 146
266 269 269 268 265 262 260 260 262 264 264 258 250 242 239 239 240 242 248 259 267 273 277 281 283 280 270 255 244 239 237 234 233 234 237 239 241 240 237 234 231 229 228 226 224 222 221 222 224 225 227 228 228 226 223 223 222 219 211 207 205 206 206 207 208 207 206 203 202 196 182 169 163 162 162 162 160 156 154 152 150 149 148 147 145 144
286 284 278 268 262 258 257 257 260 261 257 248 238 232 230 233 236 241 247 256 264 269 274 279 282 278 267 247 230 221 217 214 216 220 224 229 233 234 231 230 229 229 228 226 223 221 220 220 222 223 224 225 225 223 221 221 221 217 209 202 200 200 201 203 205 206 204 201 196 186 173 164 159 157 156 155 153 152 151 149 148 147 146 145 144 143
339 330 318 299 280 270 269 263 263 262 255 249 250 256 252 238 233 236 244 253 261 267 271 274 275 273 262 235 212 199 192 190 195 201 206 212 218 222 222 222 223 225 225 224 223 221 218 218 219 221 221 222 221 220 219 219 217 212 204 198 195 196 197 200 201 201 201 198 189 177 165 159 156 153 151 150 150 150 149 149 148 147 145 144 143 141
356 351 347 344 347 352 351 336 328 324 315 303 305 311 305 265 229 220 224 237 252 261 265 266 267 264 255 226 196 184 179 177 177 181 185 192 201 207 211 214 217 219 220 219 219 218 217 215 213 213 215 216 216 215 215 214 210 204 198 193 192 193 194 194 193 192 193 189 179 167 160 155 152 149 148 147 147 147 148 148 147 146 144 143 142 141
4 3 359 358 4 8 6 2 358 354 349 339 332 333 339 335 254 212 207 214 230 244 250 253 256 257 252 223 192 176 170 167 166 165 165 174 185 194 200 204 208 211 213 212 211 211 210 208 206 205 206 208 210 211 210 207 202 197 193 191 190 190 189 187 185 184 182 174 166 160 155 152 150 148 146 146 145 145 145 145 145 144 143 142 141 140
11 10 4 356 352 350 349 350 348 343 338 335 333 334 340 344 339 280 214 208 211 220 226 231 235 257 252 217 188 174 166 159 156 156 154 153 162 176 187 192 195 199 203 203 202 201 199 196 195 195 197 200 204 205 204 199 194 191 189 187 186 183 179 175 173 171 168 161 157 154 152 150 148 147 146 145 144 144 143 143 142 142 142 141 140 139
14 12 5 357 348 341 337 339 341 341 340 336 334 334 335 333 334 325 280 225 211 208 213 217 220 225 240 218 189 176 161 153 150 148 141 134 138 153 167 177 182 185 188 189 190 190 188 186 185 186 188 192 196 196 194 190 187 185 182 179 176 172 167 162 159 157 155 153 151 150 149 147 146 146 145 144 143 142 142 141 141 140 140 139 139 139
14 12 6 357 346 337 333 338 342 344 341 337 334 333 331 326 317 306 298 258 228 213 210 211 215 223 232 221 190 178 159 147 138 132 126 118 116 128 144 157 163 167 171 175 176 175 176 177 179 181 182 184 185 184 181 179 177 174 171 168 164 161 157 153 151 150 149 148 147 146 145 144 144 143 143 142 142 141 140 140 140 139 139 139 140 141
12 10 5 357 346 338 336 341 345 344 340 335 332 330 328 324 317 306 297 279 248 225 214 211 210 214 218 209 190 177 160 142 130 123 118 109 104 110 126 138 144 146 149 157 161 162 164 165 167 171 174 175 173 170 166 164 162 160 158 156 155 153 151 148 147 146 146 145 144 143 142 141 141 141 141 140 140 140 139 139 139 140 141 141 142 143
10 7 3 360 353 345 342 343 345 344 339 335 333 329 324 322 315 303 292 286 262 234 218 212 208 206 206 199 188 178 161 140 127 120 115 105 97 101 114 127 134 136 133 138 145 150 152 153 155 159 163 165 162 157 153 152 152 151 150 150 151 151 147 146 145 145 145 143 143 142 141 141 140 140 140 140 140 140 140 140 141 142 143 144 145 145
8 5 4 5 2 355 349 347 348 348 345 343 338 328 320 313 302 289 283 286 279 254 228 214 206 202 201 198 191 181 165 143 127 119 113 103 92 94 108 119 123 123 122 127 133 138 141 143 146 150 154 153 150 146 145 144 145 146 145 146 145 144 144 144 144 144 143 143 142 142 142 141 141 141 141 141 141 141 141 142 143 144 144 145 145 145
11 8 7 7 5 1 356 355 356 356 354 353 344 327 312 296 280 269 266 269 280 283 262 219 201 198 200 201 195 185 172 154 135 122 111 102 94 98 106 112 115 116 118 123 126 128 131 133 136 140 144 144 142 140 138 137 138 139 140 141 141 141 141 141 141 141 141 141 141 141 141 141 142 142 142 142 142 142 142 142 142 142 142 142 142 141
13 11 10 9 7 5 3 3 4 5 3 359 350 333 310 285 269 259 254 254 265 279 274 213 192 189 194 199 199 191 178 164 150 136 118 105 103 106 105 108 110 112 116 121 122 121 122 123 126 130 134 136 136 135 134 134 134 135 135 137 137 138 138 138 138 139 139 139 140 140 140 141 141 142 142 143 143 143 142 142 142 141 140 139 138 137
14 13 12 10 9 9 8 9 10 10 9 6 358 343 313 282 265 257 255 257 264 267 249 198 176 168 175 188 196 194 181 167 158 148 131 118 112 110 106 108 109 111 113 117 118 118 116 116 118 121 124 128 131 132 132 132 132 132 133 134 134 135 136 136 137 137 138 138 139 139 140 141 141 142 144 145 146 146 147 146 146 144 142 141 139 139
17 16 15 14 13 13 13 13 14 15 15 14 10 3 346 294 248 243 253 266 267 254 225 192 165 154 157 164 180 190 183 168 160 153 141 131 123 115 108 108 109 109 111 113 114 114 113 113 113 114 116 120 124 127 129 130 131 131 131 132 133 134 135 136 136 137 137 138 138 139 140 141 142 143 145 146 146 147 148 148 147 145 143 142 141 140
19 19 18 18 17 17 17 17 18 18 20 22 23 26 36 68 111 96 2 306 285 256 222 199 162 144 146 145 155 177 181 170 162 157 150 141 132 122 116 111 108 107 106 108 110 112 112 112 112 111 111 113 116 120 124 127 129 130 131 131 132 134 135 136 137 137 137 138 138 139 140 140 141 142 143 143 143 144 144 144 143 141 140 139 137 136
20 20 20 19 19 20 20 21 21 21 23 26 31 39 48 58 49 29 9 349 326 292 241 207 175 157 153 147 151 165 184 174 160 156 154 146 138 130 127 116 109 105 102 102 104 106 109 110 111 111 111 112 114 116 119 122 125 127 129 130 132 134 135 136 137 137 137 137 137 138 138 138 139 139 139 139 140 141 141 141 140 140 139 138 136 134
21 21 22 21 21 22 23 23 23 23 25 30 35 40 44 44 36 21 3 352 338 312 263 217 190 172 160 150 152 165 235 192 158 154 155 147 140 137 134 123 113 108 105 103 100 98 100 104 108 111 113 114 116 117 118 120 121 123 125 128 130 132 134 135 135 136 136 137 137 137 138 138 138 139 139 140 141 142 142 143 143 143 143 142 141 140
18 19 21 21 22 22 23 23 23 24 28 32 36 39 40 39 33 25 17 9 356 330 281 228 193 171 155 144 142 157 280 248 174 157 156 152 147 142 139 131 121 116 113 109 101 90 91 99 106 112 115 117 119 121 122 122 123 123 125 127 129 131 133 134 135 136 137 138 139 139 140 141 142 143 144 145 146 147 148 149 149 149 149 149 149 149
12 14 15 17 18 20 21 22 23 25 29 34 36 37 37 36 32 29 25 20 11 353 313 246 197 172 159 150 139 142 251 251 200 161 154 158 154 147 144 139 132 127 123 120 117 84 88 95 106 114 120 122 124 126 127 128 128 129 129 130 131 133 136 138 139 139 140 141 143 144 145 147 148 149 150 152 152 153 154 154 154 154 154 155 155 155
10 11 11 13 15 17 19 20 22 25 29 32 34 34 35 34 32 30 28 26 23 15 356 308 194 171 165 162 153 147 182 220 205 166 147 155 153 149 146 143 140 136 132 128 127 126 119 105 113 119 124 125 127 130 133 134 135 135 134 132 131 134 139 141 141 140 141 143 146 148 150 152 153 154 155 156 156 157 157 158 158 159 160 160 159 158
10 11 11 12 14 15 17 18 20 23 26 27 28 30 32 33 32 31 30 31 31 31 29 34 67 121 139 140 135 136 156 188 198 174 145 148 149 148 146 143 141 139 134 129 127 126 127 127 123 120 122 123 125 127 131 133 134 134 133 130 128 129 133 136 136 136 137 139 142 145 149 152 154 156 157 158 159 160 161 162 163 164 164 163 161 158
10 11 11 12 13 14 15 17 19 21 23 24 25 26 28 30 30 31 33 35 37 39 43 50 60 74 91 105 113 126 148 178 193 184 148 146 148 147 143 142 141 138 133 128 124 124 125 126 126 125 122 119 119 121 122 124 126 127 128 127 125 125 128 130 131 130 132 134 136 139 143 147 150 153 156 158 159 161 162 164 165 166 167 166 163 160
10 11 11 12 12 12 13 15 17 19 20 21 22 24 26 28 29 30 32 36 40 43 48 55 66 79 90 97 101 114 140 172 188 190 159 149 147 144 140 141 141 139 135 132 129 127 126 124 126 128 126 118 116 117 117 118 120 122 123 124 124 125 127 129 130 130 130 131 133 135 139 142 145 148 151 153 155 157 159 160 162 164 166 167 167 164
10 11 11 11 10 10 11 12 14 15 16 18 19 22 24 27 28 29 31 35 40 46 51 58 67 79 93 103 101 107 135 166 183 191 174 154 147 144 141 141 140 139 137 136 134 132 129 126 126 127 126 122 118 117 118 119 120 121 122 124 125 126 128 131 133 133 133 132 133 135 138 140 142 143 145 148 150 152 153 155 156 158 160 162 164 165
12 12 11 11 10 9 9 10 11 12 12 14 16 19 22 25 27 28 30 35 40 47 52 59 66 74 82 90 93 104 132 161 177 186 178 156 147 143 139 138 139 139 138 138 137 135 131 128 127 127 126 126 126 125 122 121 122 122 122 125 127 129 130 133 136 137 137 135 135 137 139 141 141 141 142 144 146 148 148 149 151 152 153 154 154 155
13 12 11 10 9 9 8 9 9 10 10 11 14 17 21 24 26 27 28 33 39 46 51 58 65 71 76 79 83 93 116 144 164 175 169 153 144 140 135 134 136 138 138 139 138 137 134 133 131 130 129 128 129 129 129 126 124 122 123 127 130 131 133 135 138 140 140 139 139 140 142 143 144 144 145 147 148 148 147 147 148 149 149 147 146 145
12 11 10 9 8 8 7 7 7 8 10 12 15 19 23 26 28 29 29 31 36 44 50 56 62 69 75 78 81 88 100 117 136 150 153 147 141 137 134 132 132 134 136 137 138 138 137 137 137 136 134 131 129 129 130 129 128 126 126 126 128 130 133 137 140 142 142 142 142 142 144 146 148 148 148 151 152 151 149 148 148 148 149 147 145 143
11 10 9 8 8 7 7 7 7 9 12 16 20 24 27 27 28 29 31 32 36 43 52 58 64 69 75 77 79 82 89 101 115 130 139 141 139 136 134 131 130 131 132 133 133 134 134 134 134 135 136 135 133 132 131 131 131 131 129 124 121 122 130 136 140 143 145 146 145 145 145 147 148 148 149 150 151 151 150 148 148 149 151 152 150 149
9 8 7 6 6 7 8 9 10 13 17 21 24 26 28 27 25 24 25 28 32 39 50 58 65 70 74 74 73 74 79 89 102 115 126 131 132 133 134 131 130 130 130 128 127 127 128 127 128 130 131 132 132 131 131 131 133 133 130 125 122 124 128 134 139 142 144 145 146 147 146 146 146 146 147 148 148 148 149 147 147 149 153 158 159 158
8 7 5 4 5 7 9 11 15 19 22 25 27 27 28 26 23 20 18 20 22 29 42 54 63 66 66 65 64 66 70 78 90 104 115 122 127 130 130 129 129 129 127 124 121 120 122 123 125 127 129 129 129 127 126 127 129 129 127 125 124 123 124 127 134 138 139 140 142 144 145 144 144 144 144 144 144 145 146 147 147 150 154 159 163 165
5 4 4 4 6 9 11 15 18 21 24 27 27 27 27 26 25 22 20 18 19 24 35 50 61 65 63 59 56 56 60 69 80 93 104 113 119 123 126 126 126 126 125 121 116 114 115 116 118 121 126 127 126 124 123 121 121 122 124 127 126 123 119 122 129 134 135 137 139 141 141 141 141 141 141 141 141 142 143 145 148 150 154 157 159 160
4 4 5 7 10 13 16 18 19 21 24 25 25 25 25 27 27 26 23 22 22 25 34 48 62 66 64 59 54 51 53 61 71 81 91 101 110 117 120 121 122 123 123 120 116 113 112 111 111 115 120 122 122 121 120 120 119 120 123 127 129 129 129 132 133 134 134 136 137 139 139 140 139 138 137 136 136 138 140 143 145 148 150 154 156 155
7 7 8 10 13 15 16 17 19 21 24 25 25 24 24 26 28 29 26 25 26 29 35 48 60 65 63 59 55 53 52 55 62 70 79 89 99 108 113 115 116 116 116 117 117 117 114 111 109 111 113 114 115 116 118 119 120 120 122 123 124 125 128 133 135 135 134 134 135 136 138 140 139 137 133 131 130 132 135 138 140 141 144 147 150 150
11 10 10 11 14 15 16 17 19 22 25 25 25 24 24 26 28 30 29 29 30 33 38 50 59 64 63 60 57 56 54 53 55 61 69 78 89 98 105 109 111 111 109 110 112 114 115 114 113 113 111 108 106 107 113 117 119 119 120 120 120 121 124 127 131 134 135 135 135 136 139 141 140 136 130 128 127 128 130 131 133 134 136 138 140 141
13 12 12 13 14 15 16 18 20 23 25 26 25 24 24 26 28 30 31 32 33 36 42 50 58 61 61 60 60 59 57 53 52 55 62 71 80 88 95 101 105 107 107 107 106 105 106 110 113 115 114 110 105 103 106 112 116 118 120 122 123 122 122 123 127 131 134 135 136 138 141 143 139 134 130 128 127 125 125 126 127 128 130 133 135 136
15 14 14 14 15 16 17 18 21 23 24 25 25 25 26 27 29 30 31 33 35 39 44 50 55 58 59 59 59 60 60 58 55 56 60 66 75 84 90 95 99 102 104 104 104 102 101 101 104 108 111 112 112 109 108 109 113 118 122 125 125 124 123 125 129 132 135 136 138 141 144 144 141 136 133 130 126 124 123 122 123 125 126 129 131 134
18 17 17 17 17 17 17 18 20 22 24 24 25 25 26 29 31 33 33 34 36 40 44 48 53 56 57 56 56 58 60 59 58 57 58 64 73 83 90 95 98 99 99 100 100 99 98 95 93 94 99 105 109 110 111 111 113 117 120 123 124 124 124 126 130 134 136 138 140 144 147 147 147 145 141 133 127 125 124 123 123 124 125 128 130 132
20 20 20 21 21 20 19 19 21 22 23 24 25 26 27 29 32 33 35 36 38 41 44 47 51 54 54 53 53 54 56 57 57 55 54 60 71 83 91 98 102 102 100 99 97 96 93 88 84 82 85 92 100 106 109 112 115 116 116 118 121 123 124 126 130 134 137 139 141 143 144 145 147 148 145 136 130 129 129 128 127 127 128 130 133 134
22 22 23 23 23 22 22 22 23 23 25 26 27 28 29 30 31 33 35 36 38 40 42 46 50 52 52 51 51 51 53 55 54 51 50 54 64 77 90 100 106 108 107 105 102 99 95 87 78 72 70 76 88 101 111 115 117 117 114 116 120 122 123 125 129 134 137 138 139 141 141 142 144 145 144 138 134 132 132 132 132 132 133 136 137 138